GFSSE_250_rhum_174.txt.gz
RH
42 40 38 39 36 38 37 30 30 40 37 44 51 38 45 48 44 48 62 51 52 60 53 52 58 53 51 62 75 85 76 68 68 66 64 61 56 52 50 46 50 52 50
37 35 29 30 27 33 28 33 34 29 26 25 55 50 47 64 66 44 44 36 41 45 43 40 36 43 42 43 48 65 78 76 69 65 65 64 60 59 57 56 54 54 55
35 28 27 30 30 26 25 30 42 25 23 19 24 31 52 67 70 51 59 53 60 50 38 39 42 37 34 35 38 44 52 61 67 67 67 66 63 62 61 56 53 52 52
31 25 25 29 28 25 25 26 41 23 21 22 17 15 19 38 79 64 78 89 74 47 47 44 48 45 42 38 37 37 43 48 49 49 52 62 63 61 58 53 52 58 58
29 23 30 29 28 26 29 32 32 20 17 20 27 20 18 14 24 93 73 80 86 59 62 59 56 50 43 38 38 39 39 35 39 48 48 46 50 53 50 50 50 55 60
27 27 32 36 31 25 25 34 29 22 16 16 16 16 16 18 18 20 82 70 73 76 67 78 69 64 60 56 50 44 39 32 27 25 27 36 45 51 49 43 44 45 57
20 30 26 30 35 29 28 32 26 23 17 15 15 14 15 16 20 30 44 44 66 73 72 75 76 64 62 58 58 60 64 67 68 51 41 39 35 33 34 39 53 66 61
20 23 26 28 30 28 25 30 22 22 18 16 15 14 14 13 13 14 25 48 48 59 68 76 80 83 83 79 57 55 53 54 64 75 68 60 56 59 69 77 68 62 50
19 23 31 31 25 24 24 24 18 18 17 16 15 14 14 13 13 14 13 14 21 32 36 40 46 64 100 100 96 71 58 56 50 55 64 79 79 72 68 63 48 37 42
20 20 20 20 22 23 21 21 18 18 15 15 15 14 15 14 13 13 14 14 14 17 23 28 26 25 27 63 81 92 76 59 48 45 50 49 66 72 72 64 49 47 40
25 22 20 20 21 20 20 17 17 16 15 15 15 15 15 16 16 15 14 14 15 16 16 15 16 17 20 22 28 45 59 37 26 25 28 30 37 54 60 66 47 64 43
25 25 25 23 21 20 20 17 17 17 17 16 16 16 17 18 17 17 17 16 15 15 16 17 17 18 18 18 18 18 20 21 22 27 28 20 20 29 32 50 45 70 64
23 22 24 23 23 22 21 20 20 19 19 20 19 17 16 17 18 18 18 18 17 16 16 17 17 17 17 17 18 19 21 31 54 62 60 52 34 22 22 31 24 54 68
24 25 25 24 24 22 22 22 21 20 20 21 22 21 20 18 18 18 20 20 18 17 17 17 18 19 19 18 17 17 21 48 53 44 52 65 60 51 26 25 23 26 61
25 25 28 28 25 24 24 24 25 24 23 22 21 21 22 23 23 21 20 20 20 20 20 18 19 18 19 19 20 20 19 19 20 27 40 60 55 52 54 26 22 21 26
34 33 32 30 31 31 29 27 27 25 24 22 22 21 21 23 24 24 24 24 23 22 22 23 23 24 23 20 19 18 20 22 21 19 18 25 54 54 55 53 23 22 19
35 34 30 28 28 28 28 27 26 26 26 24 22 23 22 23 24 23 23 22 21 21 21 20 21 22 24 24 22 21 20 18 18 20 22 21 17 33 36 37 47 33 23
23 24 24 21 20 20 20 20 20 25 25 24 24 22 22 21 20 20 19 19 20 20 17 16 16 16 17 19 22 22 20 20 21 18 18 18 21 21 21 29 27 23 27
20 21 20 22 20 18 18 17 17 18 22 22 21 20 21 22 22 21 19 19 19 18 18 17 16 16 15 14 13 15 16 17 17 16 17 19 19 18 20 23 26 25 22
20 14 14 17 17 16 14 14 14 14 14 14 14 15 16 18 19 19 19 18 16 15 18 17 16 15 13 12 11 11 12 12 13 14 14 14 14 16 18 18 23 22 20
12 6 7 10 11 11 12 14 15 16 15 15 15 13 12 12 12 12 13 13 13 13 15 14 12 11 9 9 9 10 10 9 9 10 14 13 12 12 14 18 18 21 26
9 10 9 10 11 12 13 15 14 15 16 17 18 18 17 16 16 14 12 12 12 14 12 11 9 8 7 6 6 7 8 8 8 9 10 10 12 12 14 14 14 14 17
6 6 8 10 12 14 15 16 16 18 20 23 23 20 19 19 20 21 20 21 18 16 12 10 9 8 8 8 7 7 6 6 6 7 7 9 11 12 12 12 12 12 12
3 3 3 4 8 12 15 19 22 24 25 28 28 28 29 29 28 30 26 22 18 14 14 13 12 11 10 9 9 8 8 7 7 8 7 7 7 7 8 9 9 10 11
5 5 5 5 4 7 12 18 21 24 28 28 31 33 31 32 32 28 23 20 18 15 13 11 11 10 9 9 9 9 9 10 9 9 10 10 10 10 9 9 9 8 8
4 3 4 6 6 6 9 17 22 25 28 28 31 31 29 29 26 23 20 17 15 14 13 13 12 13 15 16 20 20 13 10 11 12 11 11 12 10 11 12 13 12 10

GFSSE_250_rhum_177.txt.gz
RH
46 43 36 31 26 22 26 26 26 25 30 27 24 23 32 48 42 61 65 40 40 36 43 44 46 61 59 48 53 76 84 88 85 78 75 66 63 61 58 54 51 51 53
44 39 41 29 25 23 23 24 24 22 27 22 18 22 22 26 45 56 60 41 36 40 51 49 40 38 40 47 42 52 63 63 82 85 74 70 68 65 63 60 61 58 57
43 45 51 29 26 26 25 24 23 28 26 20 17 18 18 16 16 33 67 56 53 68 60 37 35 36 41 34 34 33 42 50 53 68 80 74 72 72 70 67 63 65 63
43 46 50 27 20 29 25 26 23 28 30 21 22 20 24 21 18 14 32 63 71 70 64 42 46 51 50 45 38 31 34 36 40 45 52 61 63 62 67 69 66 64 62
47 50 51 26 19 24 26 25 24 25 29 21 15 15 15 14 16 26 22 35 78 84 62 52 46 60 58 52 46 41 41 42 41 44 47 48 52 53 52 50 53 53 56
44 55 53 25 20 20 23 25 21 19 26 22 17 14 16 15 16 16 14 20 39 77 62 65 60 63 69 66 66 58 52 45 42 37 32 31 29 33 43 44 46 48 46
44 56 57 26 18 20 23 26 21 18 20 18 19 15 14 15 14 16 17 18 19 29 42 55 70 72 76 74 72 62 63 64 61 60 62 57 48 39 36 36 35 37 37
54 61 59 43 21 18 19 19 18 16 16 16 17 16 15 15 14 14 14 14 14 16 20 32 61 72 83 94 94 91 85 56 59 56 52 56 62 66 53 53 49 51 56
63 72 56 41 24 19 17 17 16 17 15 14 14 16 14 15 15 15 15 14 15 15 15 15 22 29 45 65 84 90 92 87 83 62 60 51 49 60 74 81 72 72 72
69 75 50 40 24 21 20 19 20 19 17 16 14 14 15 14 15 16 16 16 16 16 15 16 21 24 31 39 32 32 38 73 82 80 72 53 49 43 44 56 70 75 76
84 65 42 37 26 22 23 20 20 21 21 20 16 15 14 15 15 16 17 17 17 18 17 15 19 19 24 25 29 31 30 26 36 52 59 44 22 23 26 33 40 55 67
66 54 35 38 28 23 23 22 21 20 20 21 22 22 19 18 17 15 17 19 18 19 18 19 18 17 18 17 17 20 22 25 24 21 24 23 21 24 28 24 22 31 32
64 30 35 26 26 24 23 23 22 23 24 21 22 22 22 22 22 21 18 18 18 18 20 21 21 22 21 20 19 19 20 20 19 20 23 23 37 48 56 52 33 21 25
53 28 30 26 24 26 25 25 24 24 24 23 25 27 26 27 25 25 25 23 22 21 21 20 21 22 22 23 23 22 21 21 21 20 19 29 45 53 47 53 55 39 21
46 29 29 31 35 33 30 28 27 25 25 24 23 23 26 29 30 29 28 27 26 26 25 24 23 24 24 24 24 24 24 26 24 23 23 22 22 22 32 52 56 60 46
37 36 32 29 30 30 31 29 26 24 23 23 24 24 23 25 27 27 27 28 27 28 28 28 26 26 24 24 25 25 25 24 26 26 25 25 23 24 23 20 37 48 48
40 37 33 30 28 25 23 24 24 24 24 25 25 26 26 24 23 24 23 20 19 20 20 21 23 23 24 25 25 22 20 23 23 25 27 24 21 21 23 24 22 27 51
31 27 24 22 20 20 17 16 16 16 18 21 21 21 20 20 22 24 23 22 21 18 18 18 17 16 16 16 18 21 20 17 16 15 16 19 22 20 19 19 22 24 32
19 15 12 11 10 10 10 10 13 16 18 16 16 18 17 15 13 14 17 19 19 17 16 17 17 16 17 17 16 14 14 14 14 14 14 14 14 15 15 16 16 16 18
11 10 9 7 6 6 7 8 9 10 12 12 13 14 14 13 13 14 15 14 13 14 14 14 14 14 16 16 15 14 12 12 12 10 10 11 11 11 12 13 13 14 15
10 10 10 9 7 7 8 9 10 12 12 13 15 15 15 16 16 13 12 13 13 12 10 11 12 11 12 12 13 12 11 10 11 10 9 9 8 9 10 10 11 13 14
7 6 5 5 4 4 6 8 11 12 13 14 15 16 18 20 22 20 20 20 18 16 14 12 10 9 9 9 9 9 9 8 8 8 7 7 7 7 7 8 9 10 12
6 6 5 5 4 3 3 5 7 11 15 16 21 24 26 27 26 26 28 27 26 24 20 18 15 13 12 10 9 9 9 10 10 8 8 8 8 8 9 8 8 8 9
6 5 5 5 5 4 5 6 6 7 13 19 26 32 31 30 28 30 32 32 31 31 27 23 20 18 17 15 14 12 12 11 11 10 10 10 9 9 10 11 10 10 8
6 5 4 4 4 5 6 8 8 9 9 17 24 29 32 31 30 32 30 31 30 27 25 22 20 18 16 14 11 9 10 10 11 12 13 10 12 13 12 12 11 12 12
8 6 5 4 4 5 7 10 12 11 11 15 21 28 29 29 32 30 30 28 24 21 17 15 14 14 14 14 16 16 16 18 20 29 33 36 28 17 23 22 19 17 16

GFSSE_250_rhum_180.txt.gz
RH
49 45 46 39 39 43 30 19 21 22 20 22 25 23 17 19 21 30 46 57 61 42 41 42 50 58 70 72 72 48 61 90 98 98 83 78 73 68 65 61 58 54 52
44 43 49 41 39 48 30 18 19 22 21 21 27 24 19 21 22 16 15 37 61 47 39 56 52 52 52 47 52 49 42 51 72 85 86 83 78 75 70 67 65 62 58
48 43 44 41 40 50 37 17 17 19 22 19 23 21 20 16 20 24 19 14 46 59 57 60 58 39 40 44 44 46 41 35 44 56 64 72 77 74 68 67 65 68 66
50 45 43 39 45 51 45 18 16 18 21 19 23 21 17 19 14 15 18 23 22 54 70 69 57 41 42 47 47 45 42 35 32 34 42 47 54 59 70 70 69 68 71
47 42 42 41 41 51 52 38 16 17 18 19 21 20 17 15 14 15 15 16 16 28 64 83 78 49 45 55 55 51 48 45 41 37 37 35 36 41 44 47 52 53 54
47 46 43 39 42 60 53 42 23 15 18 18 18 18 16 15 15 16 20 22 22 18 32 59 80 61 56 49 49 56 63 59 52 46 45 46 41 39 39 37 38 43 50
48 45 40 34 51 67 62 42 26 19 17 17 16 19 17 15 16 16 16 14 15 15 15 22 44 60 72 70 60 58 64 69 71 75 70 70 71 65 60 49 38 36 34
47 38 37 34 52 70 60 38 30 22 20 18 18 18 18 17 15 14 15 15 15 14 14 13 15 40 60 73 78 74 74 76 85 87 72 72 70 68 68 64 63 55 48
54 40 44 58 69 64 53 33 34 20 20 20 22 20 18 17 16 16 15 16 17 16 15 13 13 14 31 41 51 53 64 57 70 70 87 85 69 74 72 66 67 77 80
56 49 49 51 49 58 44 29 36 26 22 22 21 22 23 20 19 17 17 18 18 18 18 17 15 14 16 20 47 52 42 41 35 33 36 72 82 72 66 57 47 49 55
62 56 58 58 59 51 50 23 26 28 24 23 23 24 21 22 25 23 21 20 20 20 20 19 19 19 17 18 17 22 22 22 29 30 27 26 32 52 60 55 31 22 24
68 64 61 63 69 66 68 42 26 24 23 23 22 22 23 23 21 23 25 26 26 22 20 21 22 22 21 21 21 21 21 18 18 18 18 19 22 21 24 28 26 21 24
68 65 74 75 75 96 95 80 37 26 24 24 25 25 26 26 26 26 23 24 28 28 27 25 23 23 24 25 24 24 24 26 25 23 21 21 20 20 21 24 26 34 41
67 87 100 100 94 85 81 46 34 29 28 25 25 25 26 26 27 29 28 26 23 25 28 30 30 29 29 27 27 27 26 26 25 25 26 25 26 24 20 21 33 49 63
100 92 62 56 49 43 38 33 31 28 26 25 24 24 26 26 23 24 27 30 30 28 27 26 26 28 31 32 30 29 29 30 29 27 27 25 25 25 27 25 36 34 38
60 47 43 38 32 30 29 28 27 25 23 22 22 21 22 23 24 24 22 22 24 24 26 27 26 26 28 29 31 31 31 29 27 25 25 25 25 23 21 23 31 42 47
35 32 29 25 25 24 23 21 20 20 18 18 18 19 20 21 20 21 25 23 23 23 22 23 25 25 24 24 27 24 24 24 27 28 26 23 21 19 18 17 22 37 56
22 17 15 13 12 11 10 10 8 8 8 9 10 11 12 14 18 21 22 21 21 21 20 21 20 18 20 22 22 25 25 23 20 19 21 24 25 22 18 16 14 15 16
12 10 10 8 7 7 8 9 10 11 11 10 11 11 11 11 12 14 17 18 17 17 20 17 15 15 15 16 16 15 15 16 18 17 15 15 17 17 16 15 15 15 14
14 14 11 9 9 8 6 5 5 8 10 12 14 15 15 16 16 16 16 16 16 16 15 16 13 12 12 12 12 11 12 12 12 13 12 11 12 12 13 12 13 13 13
18 14 9 6 5 5 5 5 5 4 6 9 13 17 19 22 22 19 18 21 19 17 16 16 18 18 14 12 12 10 10 8 8 9 10 10 10 10 11 11 11 11 12
10 9 7 6 4 4 4 4 4 4 5 6 10 13 20 25 25 25 26 23 23 23 22 23 24 20 16 14 13 13 12 10 10 8 8 8 9 9 8 8 8 8 10
13 11 9 6 4 4 4 4 4 5 6 8 10 12 15 22 28 34 36 35 34 31 30 27 27 23 19 16 16 14 17 18 16 14 13 12 10 9 8 9 9 8 8
16 11 8 7 5 4 3 4 5 6 6 10 12 15 16 20 30 34 39 38 39 37 32 29 27 24 21 19 19 20 21 21 21 17 17 15 14 12 11 10 9 9 9
16 11 11 9 7 6 4 4 5 8 8 11 13 14 15 17 23 30 36 38 36 34 30 27 24 22 22 21 17 14 13 13 15 15 12 12 12 12 10 10 11 12 11
24 26 18 15 12 11 10 7 6 8 11 14 15 17 18 18 23 29 36 36 34 28 26 25 23 20 18 20 20 20 22 23 23 24 24 18 16 20 21 21 18 19 20

GFSSE_250_rhum_183.txt.gz
RH
57 46 44 38 34 34 34 38 44 34 16 14 14 14 17 17 18 17 17 17 28 42 61 40 37 43 48 64 72 77 78 55 69 100 100 96 89 87 79 76 69 65 62
59 45 47 43 36 33 36 39 47 42 27 15 15 13 16 15 14 15 19 21 16 15 57 53 39 51 46 45 45 56 72 70 44 65 92 94 94 87 78 74 71 68 66
57 49 48 40 33 31 42 40 52 45 39 20 15 16 15 17 14 16 13 13 18 22 20 61 64 64 56 40 42 44 44 53 58 42 42 59 76 80 82 79 76 71 69
55 55 50 40 34 35 36 45 59 50 40 27 18 21 22 24 18 13 12 12 13 15 18 29 60 75 71 44 41 39 44 47 50 52 45 43 44 47 49 58 64 66 68
59 54 49 39 33 39 36 38 59 59 41 30 20 16 17 18 32 32 17 20 20 21 17 17 27 62 77 65 52 56 56 51 49 48 44 43 43 40 40 42 45 46 49
55 50 45 40 35 41 46 38 56 66 44 35 26 20 17 17 16 16 26 35 28 24 16 16 17 28 50 68 65 55 55 51 52 52 51 50 50 50 47 44 42 41 38
57 52 48 41 43 48 48 56 63 59 44 33 29 25 22 20 25 28 25 24 20 21 13 12 16 33 25 37 61 73 62 57 54 57 63 67 69 70 66 63 61 60 56
53 47 45 42 48 50 49 52 60 55 35 25 30 25 24 23 25 23 20 18 21 19 16 19 14 14 27 61 69 59 74 74 76 67 75 76 68 66 66 60 58 58 56
47 47 52 49 49 59 55 54 56 68 45 33 22 24 24 23 23 24 23 21 19 20 19 16 16 22 16 15 40 87 69 56 66 78 81 72 85 96 90 70 59 60 56
58 55 54 50 51 59 58 53 50 64 61 54 50 34 22 21 23 23 23 23 25 23 21 21 19 17 15 14 13 16 26 53 51 40 37 40 38 32 42 80 91 86 76
71 62 56 58 60 64 61 55 53 56 60 64 62 58 40 24 22 21 21 22 22 23 26 25 22 22 21 18 16 16 16 18 18 22 20 18 22 27 28 23 26 37 51
70 75 62 57 55 54 53 69 79 80 82 77 75 63 59 36 26 22 21 22 24 24 23 24 26 26 25 23 23 22 21 21 20 18 18 18 18 18 19 23 21 20 19
81 70 58 56 52 60 68 70 84 74 59 51 50 43 38 35 30 26 23 22 24 26 25 25 25 26 26 26 26 27 27 27 28 28 25 24 24 21 18 18 20 20 19
61 57 71 84 88 81 78 64 53 40 39 37 37 35 30 31 31 30 27 24 23 26 27 23 21 22 26 30 30 28 26 28 30 30 30 28 28 30 28 37 25 30 36
63 87 100 86 68 55 51 48 43 37 34 29 27 26 26 29 28 28 30 28 27 27 28 28 27 23 24 25 27 31 32 30 28 28 30 30 28 28 30 28 38 57 50
80 89 80 69 49 38 34 32 33 28 14 12 13 14 18 22 24 26 25 27 30 32 32 31 29 30 29 28 28 27 26 26 26 27 28 27 25 25 25 24 22 23 35
99 76 47 36 27 22 16 12 10 10 10 10 10 10 10 11 13 16 20 22 23 25 29 34 35 35 34 32 28 25 24 23 22 23 24 24 22 20 20 22 20 18 19
52 39 25 19 14 11 10 9 8 8 8 9 10 11 12 13 12 13 14 15 17 17 19 20 25 32 38 36 35 30 28 25 22 19 17 16 18 18 17 17 17 15 14
27 18 14 13 12 10 8 6 5 6 5 5 7 9 12 14 17 18 18 17 17 18 17 16 17 19 25 28 29 27 25 24 19 17 16 15 14 15 16 14 14 14 14
15 16 16 13 10 8 7 7 5 4 4 4 4 5 7 10 13 18 21 24 24 22 22 21 17 15 16 18 18 18 18 17 16 14 13 12 11 12 12 12 12 12 12
16 15 14 13 11 10 10 6 4 3 3 3 4 4 6 8 9 12 19 23 24 26 27 28 25 24 22 19 17 17 14 13 12 10 10 9 9 9 9 8 9 9 9
16 16 20 22 17 13 8 6 4 3 3 4 4 4 6 8 10 12 14 20 26 28 31 35 32 30 26 30 28 24 17 15 13 13 12 12 12 12 12 12 12 10 9
26 28 27 21 14 9 8 7 5 4 4 5 5 5 7 9 12 14 16 18 24 31 31 32 35 36 34 34 28 26 23 18 17 19 20 18 16 15 15 14 14 14 12
29 24 21 22 19 12 10 9 8 6 6 6 7 6 8 14 18 18 17 20 25 30 34 40 45 45 38 32 30 27 25 24 22 20 19 16 14 15 14 14 15 14 14
28 27 28 25 27 28 17 14 14 12 8 7 8 11 16 18 17 18 19 23 26 28 37 47 44 41 35 33 30 26 25 23 18 15 12 15 14 15 15 15 16 16 14
35 36 39 35 33 32 34 29 23 18 16 16 15 14 16 19 22 23 31 34 35 39 44 42 38 33 30 26 23 22 24 21 18 20 18 14 14 17 22 23 22 23 25

GFSSE_250_rhum_186.txt.gz
RH
51 52 56 50 44 43 39 30 31 43 44 44 33 23 17 17 17 17 13 13 14 12 12 25 48 46 32 35 37 48 60 70 69 69 62 86 96 77 100 100 86 81 78
64 58 63 56 50 45 41 36 29 33 48 51 35 32 29 24 19 18 17 16 14 12 15 13 24 52 41 46 48 37 40 56 60 73 57 81 100 100 98 96 83 78 74
69 64 62 58 52 46 40 35 30 35 36 52 48 34 27 23 27 27 33 19 13 12 13 14 21 36 53 63 70 51 42 40 40 44 62 53 68 89 99 98 95 90 82
77 68 60 57 53 48 44 41 33 40 42 49 47 34 26 24 20 25 30 39 29 20 18 14 14 16 31 56 72 57 41 42 41 40 37 41 44 52 67 80 87 88 86
75 72 66 59 52 49 42 41 37 40 47 55 51 38 33 32 29 38 47 57 68 70 44 29 22 17 16 33 63 78 57 48 48 47 45 43 40 40 39 38 40 39 43
72 66 58 54 55 48 44 46 40 45 44 48 47 38 28 24 30 26 28 29 37 44 52 40 25 14 19 21 24 48 78 66 51 49 48 48 47 45 44 46 46 46 44
70 63 55 54 56 46 46 46 41 40 43 44 50 44 31 26 23 22 22 22 21 21 26 36 53 33 30 64 69 29 33 59 71 60 53 52 50 50 47 47 48 50 52
57 56 58 58 56 50 46 43 42 40 44 46 46 49 46 37 32 30 25 22 22 22 20 17 22 51 78 55 55 83 79 49 49 77 75 71 72 65 60 55 60 58 55
56 66 64 59 51 52 49 40 36 37 41 48 52 47 46 44 41 39 28 26 22 20 22 24 21 17 17 31 47 34 21 51 74 62 53 66 74 85 93 83 80 76 64
73 63 56 56 59 53 46 41 36 37 43 47 48 45 48 55 55 50 41 44 38 27 22 21 23 26 20 18 17 17 17 15 16 24 54 66 57 43 44 46 44 45 74
61 66 60 57 46 43 44 39 38 40 41 43 44 46 52 44 44 44 42 42 45 39 29 23 21 22 24 26 23 20 20 19 18 17 17 20 25 31 34 27 24 23 22
69 63 64 56 48 50 50 45 45 42 36 40 40 44 40 38 42 41 35 32 33 35 32 25 25 21 22 22 23 25 23 23 23 22 20 19 19 18 20 21 19 18 19
67 70 61 53 51 54 44 40 41 49 53 48 43 40 38 36 33 36 39 38 33 30 32 29 26 26 24 23 22 23 23 25 25 24 24 23 24 22 18 16 22 30 23
55 50 40 39 36 36 55 77 74 60 46 40 38 30 26 24 23 26 33 34 30 28 29 31 29 26 27 26 25 25 23 22 23 26 27 26 26 26 25 24 20 26 44
40 38 34 44 76 89 85 62 47 42 36 23 15 14 14 15 14 15 17 21 21 26 31 32 34 32 31 31 29 28 30 29 27 26 24 23 24 25 26 25 24 24 22
56 71 87 83 72 60 47 36 28 18 12 11 10 9 10 10 11 12 13 15 16 19 25 31 40 39 38 36 34 34 32 31 31 29 29 25 22 20 20 20 20 21 21
99 84 63 43 35 27 16 12 11 10 8 7 6 7 7 8 8 10 10 13 15 17 17 26 44 46 45 48 45 42 40 34 31 30 28 28 26 24 22 20 18 17 16
71 57 40 27 16 14 14 11 10 10 8 6 6 6 6 6 6 7 9 12 16 18 20 21 23 29 39 46 51 45 40 40 34 31 28 28 28 26 23 22 19 18 18
57 33 17 16 16 14 15 14 15 10 6 4 4 3 4 4 4 6 7 9 14 20 24 25 27 27 24 24 25 22 22 22 23 25 31 32 29 25 20 19 18 16 15
23 18 18 18 20 24 22 19 11 8 7 5 4 3 3 3 4 5 7 8 11 17 22 27 28 32 29 28 26 21 20 19 17 18 19 22 22 20 17 16 15 15 14
20 20 19 27 29 25 22 19 17 9 7 5 4 4 4 3 4 5 7 9 10 14 20 25 28 28 30 31 29 28 24 24 23 22 18 15 15 14 13 12 11 11 11
21 21 28 30 26 25 24 22 20 19 9 7 4 5 5 5 4 5 8 10 10 12 15 21 26 31 31 34 34 35 31 31 26 20 18 15 14 12 12 12 13 13 12
23 33 32 29 26 26 28 26 25 24 19 10 7 5 6 6 6 7 9 12 13 12 14 16 22 29 35 36 40 35 28 24 21 20 18 18 19 20 19 18 17 16 15
30 34 32 28 24 28 33 30 32 29 27 22 14 11 8 10 13 13 13 14 15 15 17 20 26 33 36 35 31 31 34 34 30 31 31 28 25 23 21 17 14 12 11
37 35 36 31 31 37 38 41 40 38 33 30 30 26 17 16 14 14 16 18 20 22 22 25 26 36 38 34 36 43 42 39 34 28 25 22 18 17 17 17 16 18 18
36 41 41 40 45 42 43 45 46 47 44 40 38 35 33 33 28 23 20 19 20 22 28 35 38 42 39 41 42 42 31 24 22 20 17 18 18 18 16 14 12 11 13

GFSSE_250_rhum_189.txt.gz
RH
68 62 61 56 50 44 42 43 42 41 38 32 29 35 38 31 23 20 20 17 13 12 12 13 13 21 36 44 34 34 36 40 47 72 84 67 58 71 91 91 80 77 79
71 67 63 57 54 51 50 48 45 41 36 34 33 35 42 40 26 22 23 25 35 25 14 11 12 15 14 44 40 42 47 44 33 37 59 60 58 57 64 68 72 89 99
75 65 62 63 59 56 54 52 45 40 36 34 34 38 50 52 42 43 38 26 22 30 35 24 25 60 22 28 41 48 60 58 41 36 33 41 46 55 55 92 89 80 96
71 69 67 70 64 56 52 49 45 40 38 38 34 34 45 39 30 36 63 58 79 96 81 68 58 40 27 15 20 43 62 57 42 37 35 36 34 35 43 61 90 92 88
81 84 77 63 60 58 54 49 49 45 42 40 36 34 34 40 32 29 26 26 25 31 37 48 49 50 36 22 16 17 43 56 58 47 40 40 40 38 31 33 41 59 76
92 76 66 56 53 57 54 51 49 44 42 38 34 32 32 36 37 26 32 26 25 25 27 26 32 45 58 64 48 54 33 28 49 61 57 51 46 43 42 39 33 32 35
79 65 56 54 50 52 53 50 50 46 37 32 29 28 29 34 38 33 30 26 29 29 34 35 48 37 64 70 77 82 99 94 40 45 64 64 55 47 45 46 46 42 41
66 67 62 55 55 54 52 47 40 36 36 34 31 30 30 36 43 40 33 33 30 29 27 28 30 22 22 40 59 75 65 66 90 88 53 59 70 69 66 64 56 53 54
78 67 63 60 57 52 46 47 44 42 38 35 33 31 31 39 49 52 50 44 35 33 40 50 43 39 24 21 19 22 33 48 48 28 50 84 70 73 75 77 73 75 79
65 57 55 49 44 42 45 43 38 38 34 34 38 35 35 32 31 38 40 37 33 36 38 34 41 42 38 30 22 20 18 18 18 20 18 18 32 55 66 66 54 58 69
62 54 44 40 36 37 34 32 34 33 38 40 39 37 39 38 34 32 31 34 36 34 31 30 30 34 38 36 32 23 21 21 21 19 18 19 20 18 21 30 42 44 41
52 43 37 34 33 32 30 39 44 53 45 42 41 37 38 36 34 31 32 34 33 32 32 32 33 35 37 38 33 28 26 23 24 25 24 20 20 19 18 19 20 20 20
49 41 37 37 42 43 66 65 57 64 53 42 34 25 22 21 20 22 25 25 24 22 27 33 32 32 36 41 36 32 28 27 25 25 26 24 22 20 20 22 27 26 25
38 34 34 38 34 35 48 55 46 35 22 15 14 13 12 11 11 11 11 13 13 15 16 19 21 28 31 37 38 31 32 30 29 26 24 24 24 26 23 21 20 19 21
36 29 32 38 58 68 68 64 33 14 14 14 12 10 9 8 7 7 8 9 10 12 13 15 18 21 32 38 44 38 36 35 33 33 31 28 28 29 30 28 24 22 21
34 35 50 90 85 68 50 18 15 17 18 18 15 10 7 6 6 6 6 6 7 9 13 14 16 20 27 39 39 45 44 44 44 42 40 38 33 33 30 28 28 26 23
60 82 77 72 59 37 16 17 20 23 23 19 13 8 6 4 4 4 4 5 6 8 10 14 17 18 24 34 46 47 52 51 51 52 56 52 47 41 33 30 28 27 25
91 89 70 55 32 17 18 21 28 26 22 19 13 7 5 4 3 3 4 4 5 6 8 11 15 21 24 29 40 54 49 62 64 60 59 59 49 42 41 34 29 28 27
57 76 60 25 18 20 24 25 26 21 22 15 18 10 5 3 3 3 3 3 4 6 9 10 13 19 24 32 34 42 50 58 70 69 70 52 42 34 31 28 28 26 23
73 71 26 19 21 27 29 28 23 24 24 19 18 14 6 4 4 4 3 3 4 6 9 10 12 17 25 33 34 40 51 49 46 48 37 29 25 22 20 18 17 16 16
50 23 20 22 25 33 32 26 21 22 24 20 19 22 14 6 5 5 4 4 4 6 9 11 11 15 24 39 46 38 39 43 44 39 35 28 25 24 21 16 15 14 13
21 22 23 24 34 34 29 28 26 30 28 24 23 23 22 15 7 8 6 6 6 7 9 11 12 13 20 29 41 52 54 49 46 43 33 26 23 20 17 15 13 14 14
24 25 24 32 37 36 33 30 32 39 38 36 34 30 28 24 22 12 12 12 10 11 12 12 13 13 16 22 28 35 39 42 41 36 31 27 24 24 24 23 20 18 15
26 26 26 36 39 38 36 34 39 48 46 45 46 46 37 35 31 28 25 19 18 17 15 15 16 16 18 19 22 29 32 34 35 31 28 31 33 32 29 26 24 23 20
28 26 33 41 43 38 35 36 44 45 53 53 55 60 59 44 41 40 32 30 27 23 23 22 20 20 23 25 26 31 33 33 30 30 32 37 32 27 22 19 17 15 14
29 34 37 38 38 34 32 38 46 44 54 60 61 59 64 66 57 43 41 41 39 35 35 29 26 27 28 31 34 34 32 31 33 34 23 20 18 23 26 26 25 23 20